CW0179 Weather Reports


time (UTC)temp
C
wind
direction
speed
KPH
gust
KPH
rain 1hr
cm
rain 24hr
cm
rain mn
cm
humidity
%
barometer
mb
20260504160149 20 72 3.2 12.9 0.00 0.00 0.00 40 1011.0
20260504151033 19 72 3.2 11.3 0.00 0.00 0.00 45 1011.5
20260504140955 17 158 1.6 9.7 0.00 0.00 0.00 47 1012.1
20260504100320 2 148 0.0 0.0 0.00 0.00 0.00 94 1012.5
20260504081926 2 148 0.0 0.0 0.00 0.00 0.00 94 1012.1
20260504080920 2 148 0.0 0.0 0.00 0.00 0.00 94 1012.1
20260504050216 3 148 0.0 0.0 0.00 0.00 0.00 88 1011.5
20260504045223 3 148 0.0 0.0 0.00 0.00 0.00 87 1011.4
20260504044219 3 148 0.0 0.0 0.00 0.00 0.00 86 1011.4
20260504043224 3 148 0.0 0.0 0.00 0.00 0.00 85 1011.4
20260504042216 3 148 0.0 0.0 0.00 0.00 0.00 85 1011.3
20260504041211 3 148 0.0 0.0 0.00 0.00 0.00 83 1011.3
20260504040150 4 148 0.0 0.0 0.00 0.00 0.00 82 1011.3
20260504035139 4 148 0.0 0.0 0.00 0.00 0.00 82 1011.2
20260504034122 4 148 0.0 0.0 0.00 0.00 0.00 82 1011.3
20260504031954 4 148 0.0 0.0 0.00 0.00 0.00 78 1011.2
20260504030956 5 148 0.0 0.0 0.00 0.00 0.00 78 1011.1
20260504025933 5 148 0.0 0.0 0.00 0.00 0.00 75 1011.1
20260504024909 5 148 0.0 0.0 0.00 0.00 0.00 73 1011.2
20260504023902 5 148 0.0 0.0 0.00 0.00 0.00 71 1011.2
20260504022852 6 148 0.0 0.0 0.00 0.00 0.00 71 1011.3
20260504021843 6 148 0.0 0.0 0.00 0.00 0.00 69 1011.2
20260504015718 6 148 0.0 0.0 0.00 0.00 0.00 68 1011.2
20260504014730 7 148 0.0 0.0 0.00 0.00 0.00 66 1011.1
20260504013719 7 148 0.0 0.0 0.00 0.00 0.00 63 1011.0
20260504011533 8 148 0.0 0.0 0.00 0.00 0.00 57 1010.9
20260504010535 10 148 0.0 0.0 0.00 0.00 0.00 54 1010.6
20260504005508 10 148 0.0 0.0 0.00 0.00 0.00 52 1010.5
20260504004454 10 148 0.0 0.0 0.00 0.00 0.00 50 1010.4
20260504003421 11 148 0.0 0.0 0.00 0.00 0.00 47 1010.2
20260504002406 11 148 0.0 0.0 0.00 0.00 0.00 46 1010.1
20260504001427 12 148 0.0 0.0 0.00 0.00 0.00 46 1010.0
20260504000427 12 148 0.0 0.0 0.00 0.00 0.00 41 1009.8
20260503235430 13 148 0.0 0.0 0.00 0.00 0.00 38 1009.6
20260503234453 13 156 0.0 0.0 0.00 0.00 0.00 36 1009.5
20260503233453 13 172 0.0 0.0 0.00 0.00 0.00 35 1009.4
20260503231308 13 164 0.0 9.7 0.00 0.00 0.00 33 1009.1
20260503230239 14 176 0.0 9.7 0.00 0.00 0.00 31 1009.0
20260503225235 15 174 0.0 9.7 0.00 0.00 0.00 31 1009.0
20260503224229 15 168 0.0 6.4 0.00 0.00 0.00 30 1008.9
20260503223159 15 170 0.0 14.5 0.00 0.00 0.00 29 1008.9
20260503222209 15 172 3.2 14.5 0.00 0.00 0.00 31 1008.8
20260503221215 15 120 3.2 24.1 0.00 0.00 0.00 30 1008.8
20260503220154 15 203 1.6 16.1 0.00 0.00 0.00 31 1008.8
20260503215126 15 153 3.2 12.9 0.00 0.00 0.00 32 1008.9
20260503214129 15 154 3.2 11.3 0.00 0.00 0.00 31 1008.8
20260503213135 15 159 3.2 9.7 0.00 0.00 0.00 31 1008.7
20260503210955 15 141 4.8 24.1 0.00 0.00 0.00 33 1008.9
20260503205945 15 125 3.2 20.9 0.00 0.00 0.00 33 1008.8
20260503204957 15 145 4.8 20.9 0.00 0.00 0.00 33 1008.8
20260503203926 15 114 4.8 17.7 0.00 0.00 0.00 32 1008.8
20260503201812 15 228 3.2 19.3 0.00 0.00 0.00 35 1008.6
20260503200830 15 146 4.8 19.3 0.00 0.00 0.00 36 1008.6
20260503195755 15 291 3.2 19.3 0.00 0.00 0.00 37 1008.9
20260503194728 14 174 3.2 17.7 0.00 0.00 0.00 38 1008.9
20260503193737 13 160 3.2 16.1 0.00 0.00 0.00 38 1009.0
20260503191659 13 117 1.6 14.5 0.00 0.00 0.00 45 1009.3
20260503190709 13 188 3.2 12.9 0.00 0.00 0.00 40 1009.4
20260503185726 13 285 3.2 14.5 0.00 0.00 0.00 39 1009.3
20260503184740 13 69 1.6 16.1 0.00 0.00 0.00 41 1009.3
20260503183803 13 165 4.8 16.1 0.00 0.00 0.00 40 1009.6
20260503182822 13 139 4.8 16.1 0.00 0.00 0.00 40 1009.5
20260503181829 13 109 3.2 14.5 0.00 0.00 0.00 39 1009.5
20260503180830 13 127 3.2 16.1 0.00 0.00 0.00 39 1009.5
20260503174620 13 139 4.8 17.7 0.00 0.00 0.00 38 1009.3
20260503173551 13 111 3.2 25.7 0.00 0.00 0.00 39 1009.3
20260503171430 13 156 4.8 16.1 0.00 0.00 0.00 38 1009.4
20260503170407 13 154 3.2 16.1 0.00 0.00 0.00 41 1009.4